Regional Weather Roundup
Issued by NWS

Home | Current Version | Previous Version | Text Only | Print | Product List | Glossary On
Versions: 1 2 3 4 5 6 7 8 9 10 11 12 13 14 15 16 17 18 19 20 21 22 23 24 25 26 27 28 29 30 31 32 33 34 35 36 37 38 39 40 41 42 43 44 45 46 47 48 49 50
000
ASCA42 TJSJ 191611
RWRPR
PUERTO RICO/U.S. VIRGIN ISLANDS HOURLY WEATHER ROUNDUP
NATIONAL WEATHER SERVICE SAN JUAN PR
1200 PM AST FRI SEP 19 2014

PRZ001-004-191700-
PUERTO RICO

CITY           SKY/WX    TMP DP  RH WIND       PRES   REMARKS
SAN JUAN LMM   MOSUNNY   90  75  62 E16       29.96F HX 100
PONCE          MOSUNNY   90  75  62 SE12      29.94S HX 100
AGUADILLA      SUNNY     86  72  62 NE8       29.97F HX  92
CEIBA          MOSUNNY   88  79  74 E14       29.99F HX 102
$$

PRZ006-007-191700-
U.S. VIRGIN ISLANDS

CITY           SKY/WX    TMP DP  RH WIND       PRES   REMARKS
CHRISTIANSTED  MOSUNNY   90  75  62 E15G23    29.97F HX 100
$$

HOURLY WEATHER ROUNDUP FOR THE NEWS MEDIA

CITY           SKY/WX    TMP DP  RH WIND       PRES   REMARKS
MIAMI          CLOUDY    85  74  69 SW8       29.96F HX  92
ORLANDO        CLOUDY    84  74  71 E9        29.99S HX  91
NEW YORK       MOSUNNY   65  43  44 NE10      30.35S
NEWARK         PTSUNNY   62  44  51 NE12      30.34S
CHICAGO        MOSUNNY   66  51  58 S13       30.15F
HARTFORD       MOSUNNY   59  37  44 N10       30.36R
BOSTON         MOSUNNY   56  35  45 NE10      30.40R
DALLAS         PTSUNNY   78  69  73 E13G18    29.98S
PHILADELPHIA   CLOUDY    65  52  62 NE12      30.32R


USA.gov is the U.S. government's official web portal to all federal, state and local government web resources and services.